Погода в Пиктоне

Новая Зеландия     41°17′15″S   174°00′11″E
темп.,
°C
ветер,
м/с
пор.,
м/с
влажн.,
%
обл.,
%
осадки,
мм/ч
давл.,
гПа
погр.,
м
15 августа, пн
пн1500:00+4з1195100 0.0 102530
03:00+3з1193100 0.0 102613
06:00+4юв0193100 0.0 102716
09:00+7ююз1181100 0.0 102963
12:00+11ююв0063100 0.0 1029794
15:00+11с2263100 0.0 1026933
18:00+6ссз2295100 0.0 102765
21:00+7сз2296100 0.0 102876
16 августа, вт
вт1600:00+6сз2297100 0.0 102860
03:00+8ссз2393100 0.0 102787
06:00+9ссз2395100 0.0 1026112
09:00+9ссз2497100 0.2 1027205
12:00+11ссз2591100 0.3 1027406
15:00+11ссз2595100 0.3 1025320
18:00+10ссз2297100 0.4 102544
21:00+11ссз2698100 0.3 1025292
17 августа, ср
ср1700:00+11с2798100 0.8 1025356
03:00+11ссз2696100 0.6 1024322
06:00+11с3799100 3.9 1022480
09:00+12с3899100 7.1 1023590
12:00+12с41199100 18.3 1023805
15:00+12ссз41499100 22.1 10201187
18:00+13с31399100 40.1 10201079
21:00+13с31098100 8.6 1021644
18 августа, чт
чт1800:00+13с31098100 14.3 1021683
03:00+13ссз31098100 6.8 1018705
06:00+13с31199100 18.9 1017771
09:00+13ссз3999100 16.7 1018579
12:00+13ссз1599100 45.4 1016288
15:00+14ссз2799100 27.8 1015363
18:00+14ссз31698100 48.8 10151243
21:00+15ссз51798100 14.9 10151243
19 августа, пт
пт1900:00+14ссз51598100 21.7 10151117
03:00+14ссз31199100 1.1 1016732
06:00+13сз23100100 1.3 1019160
09:00+14сз1299100 0.2 102193
12:00+13с0199100 2.8 102358
15:00+13св01100100 5.5 1022100
18:00+13св11100100 12.6 102299
21:00+14с2899100 5.8 1022464